L'Héraultaise - 06/04/2014

138 km


Pl Do. Nom - Surname Prénom - Name S-Cat /cat Club - Team TEMPS - Time Km/h /sx
1 433 CANDELON OLIVIER MC 1 espoir cycliste ste luce (martinique) 03:40:45 37,51 1
2 848 CHAPEL NICOLAS MB 1 team montagnac ac 03:40:45 37,51 2
3 19 CHAVANON JEAN LUC MD 1 chamrousse cyclosport 03:40:56 37,47 3
4 212 TRAUCHESSEC JEAN BAPTISTE MB 2   03:41:15 37,42 4
5 138 AZAM DOMINIQUE MD 2 vvsa 03:46:06 36,62 5
6 850 KAGGESTAD ERWAN MA 1 as carcassonne 03:46:06 36,62 6
7 830 ZAMORA BENJAMIN MB 3 team montagnac 03:46:07 36,62 7
8 839 FULCRAND GREGORY MB 4   03:46:07 36,62 8
9 847 BERNAD YANNICK MB 5 cyclo club rivesaltes 03:46:33 36,55 9
10 866 AZAM ANTONIN MA 2 gmc 38 03:49:26 36,09 10
11 97 ROUX PASCAL MD 3 team scott vélo 101 03:49:27 36,08 11
12 833 TOUBOUL STEEVE MA 3 team montagnac avenir cycliste 03:49:27 36,08 12
13 849 LAVAUZELLE FREDERIC MB 6 ec balarucois 03:49:27 36,08 13
14 872 LEJEUNE SYLVAIN MA 4 ciclismo 03:49:28 36,08 14
15 495 DONNADIEU JEAN-YVES MC 2 team montagnac avenir cycliste 03:49:28 36,08 15
16 4 HUPEL YVES MD 4 vtt fun club 03:49:28 36,08 16
17 203 CARTAL MARC MD 5 aspes savoie 03:49:29 36,08 17
18 117 FELTZINGER JONATHAN MA 5 cvc montfavet 03:49:29 36,08 18
19 436 FERRY JEAN FRANCOIS MC 3 avc aix en provence 03:49:30 36,08 19
20 415 BOURRET STÉPHANE MC 4 cosrl 03:49:30 36,08 20
21 809 CROS JÉRÉMY MA 6 vaison usc 03:49:30 36,08 21
22 449 RUSINOWICZ DANIEL MC 5 sprinter velo club nimois 03:49:30 36,08 22
23 864 MERLE JULIEN MB 7 vcsalindres 03:49:30 36,08 23
24 826 BECARUD THOMAS MA 7 team scott vélo 101 03:49:31 36,08 24
25 453 PERROUX DAVID MC 6 velo club des alpilles 03:49:31 36,07 25
26 472 BELLAJ SAAD MC 7 elan cycliste balarucois 03:49:31 36,07 26
27 837 BOUISSIERE SEBASTIEN MB 8 team montagnac ac 03:49:32 36,07 27
28 532 DUTOUR MICHEL MC 8 st gaudens cyclisme 03:49:32 36,07 28
29 845 NILSSON PER-ERIK MB 9 dinvelo ck (suède) 03:49:35 36,07 29
30 457 RICHARD STANISLAS MC 9 sc manissieux 03:49:37 36,06 30
31 827 GRIALOU WILLIAM MB 10 montpellier triathlon 03:49:44 36,04 31
32 832 DECONINCK PASCAL MB 11 team madewis 03:50:11 35,97 32
33 139 HIDALGO JEAN-PHILIPPE MD 6 c.c.rivesaltes 03:50:38 35,90 33
34 94 STADLER ERIC MD 7 vc pringy 74 03:51:42 35,73 34
35 528 CACHON LIONEL MC 10 stvs 03:51:57 35,70 35
36 502 CHABERT DOMINIQUE MC 11 comité languedoc roussillon 03:51:59 35,69 36
37 155 LAUSSEL PIERRE MD 8 vssa 03:52:02 35,68 37
38 437 SOBOUL LAURENT MC 12 chamrousse team cyclosportif 03:52:02 35,68 38
39 865 YOLANDE FLORIAN MA 8 vc salon de provence 03:52:02 35,68 39
40 2 BECAM JEAN YVES ME 1 team cycliste choletais 03:52:02 35,68 40
41 844 BAILLY STEPHANE MB 12 e c balarucois 03:52:03 35,68 41
42 842 SARROU LUDOVIC MB 13 elan cycliste balarucois 03:52:03 35,68 42
43 134 RAFFIN DIDIER ME 2 avc aix en provence 03:52:03 35,68 43
44 202 TURC JEFF MD 9 sud vélo/ne jetez plus 03:52:03 35,68 44
45 511 MEHEUST LUDOVIC MC 13 free ironman team 03:52:03 35,68 45
46 64 SCHWAB PATRICK ME 3 ac montagnac 03:52:04 35,68 46
47 840 BROS MICKAËL MA 9 vélo club mauguio 03:52:04 35,68 47
48 498 MESSAGER RENÉ MC 14 canohes avenir cycliste 03:52:04 35,68 48
49 14 ROLLAND JEAN-MARC ME 4 team cvc 03:52:04 35,68 49
50 440 PEDULLA BRUNO MC 15 la fleche floracoise 03:52:05 35,68 50
51 494 BOUCHET ALEXANDRE MC 16 avenir cycliste corconne 03:52:05 35,67 51
52 206 BOUSQUET MARC MD 10 team montagnac ac 03:52:07 35,67 52
53 815 FRANK BARRETT MB 14 galway bay c/c 03:52:07 35,67 53
54 110 SAYSSET KARINE FW2 1 team montagnac ac 03:52:08 35,67 1
55 123 FOURNIER ERIC MD 11 as testerine 03:52:09 35,66 54
56 870 TOURNIER LUDOVIC MA 10 le mée triathlon 03:52:11 35,66 55
57 429 TAIBI CHRISTOPHE MC 17 team madewis 03:52:15 35,65 56
58 821 ASQUIE NEAL MA 11 accro velo sport nature 03:52:19 35,64 57
59 526 CRUVEILLER BERNARD MC 18 saint chely cyclisme 03:54:11 35,35 58
60 208 VIDAL SERGE MC 19 mauguio 03:54:12 35,35 59
61 824 MARTINS CÉDRIC MA 12 cyclo sport ciotaden 03:54:12 35,35 60
62 444 GUILLAUME PIERRE MC 20 crocos d'airain nimes triathlon 03:54:12 35,35 61
63 140 TOURNADRE GERARD ME 5 cc le boulou 03:54:12 35,35 62
64 491 DELTELL BRUNO MC 21 cso millau 03:54:13 35,35 63
65 474 GERBAL BRUNO MC 22 tmbsa 03:54:15 35,35 64
66 18 FRANÇOIS PATRICK MF 1 velo concept 03:54:15 35,35 65
67 868 SERY VINCENT MA 13 ccsm 03:54:44 35,27 66
68 831 MARTIN PIERRE MA 14 vélo club des alpilles 03:57:41 34,84 67
69 413 MAINE GILLES MC 23 cc pyrénéen 03:59:17 34,60 68
70 538 ACEDO JOSE MC 24   03:59:56 34,51 69
71 152 PASCAL THIERRY MD 12 vélo tonic vauverdois 03:59:57 34,51 70
72 96 CUBEDO PIERRE ME 6 team montagnac ac 03:59:57 34,51 71
73 101 ROCHE JEAN-FRANCOIS MD 13 chamrousse team cyclosport 03:59:57 34,51 72
74 25 GOURON MICHEL MD 14 montagnac ac 03:59:57 34,50 73
75 530 RAYNAL PHILIPPE MC 25 tbc34 03:59:58 34,50 74
76 410 MONGLON ERIC MC 26 vc la souterraine 03:59:58 34,50 75
77 456 COMBESCURE RENAUD MC 27 tbc 34 03:59:59 34,50 76
78 488 BESSET CHRISTOPHE MC 28 asph triathlon 04:00:00 34,50 77
79 92 GAILLARD FRANCK MD 15 vélo club salindres saint privat 04:00:07 34,48 78
80 130 MATA MICHEL ME 7 vélo club randonneurs lézignanais 04:00:39 34,41 79
81 201 CARIVENC DANIEL MD 16   04:01:00 34,35 80
82 417 NENZI JACQUES MC 29 vtt garlaban 04:01:02 34,35 81
83 128 GOSTINICCHI JEAN LUC MD 17 sprinter vélo club nimois 04:01:03 34,35 82
84 869 CORIDON CECIL MB 15 aux jardins d'adam 04:01:03 34,35 83
85 497 VERGER FRÉDÉRIC MC 30 a.s. l'union 04:01:03 34,35 84
86 149 NADAUD DOMINIQUE MF 2 as l'union 31 04:01:04 34,35 85
87 446 HOUYVET CHRISTOPHE MC 31 veloroc 04:01:06 34,34 86
88 516 CHAPEL FABIEN MC 32 sud velo ne jetez plus 04:01:08 34,34 87
89 873 GAYE MATHIEU MA 15 montpellier languedoc cyclisme 04:01:15 34,32 88
90 7 VALLÉE RENÉ MD 18 guidon sportif coursan narbonne 04:02:29 34,15 89
91 91 DRIGEARD JACQUES MD 19 cyclos cournon d'auvergne (cca) 04:02:40 34,12 90
92 801 HENRI PIERRE MA 16 team tarmac 04:02:41 34,12 91
93 448 RODIER GILLES MC 33 vc lavaur 04:02:41 34,12 92
94 485 GUITTON PASCAL MC 34 velo club des alpilles 04:02:41 34,12 93
95 23 ARBES EMILE MF 3 vc peyrefitte 04:02:42 34,12 94
96 503 PAPPALARDO STEPHANE MC 35 elan cycliste balarucois 04:02:42 34,12 95
97 136 BERTRAND MARC MD 20 istres sport cyclisme 04:02:44 34,11 96
98 404 PRADEILLES OLIVIER MC 36 ac clapiers 04:02:44 34,11 97
99 162 VICINELLI PATRICE MD 21 cyclo club aussonnais 04:02:44 34,11 98
100 481 SCHWARTZMAN PASCAL MC 37 cyclo club mondonville 04:02:44 34,11 99
101 32 PLET DIDIER MD 22 team cvc carcassonne 04:02:54 34,09 100
102 33 ROQUES JEAN PAUL MD 23 cprs pins justaret vilatte 04:02:54 34,09 101
103 82 TRENZA JOSÉ ME 8 vélo club melgorien 04:02:56 34,08 102
104 443 RAMOUSSE ARNAUD MC 38 cprs pins justaret villate 04:02:56 34,08 103
105 496 LAFORGUE JEAN-MICHEL MC 39 fjep varilhes 04:02:56 34,08 104
106 112 LAUREU ROBERT MD 24 cprs pins justaret villatte 04:02:57 34,08 105
107 85 PARTESANA MICHEL ME 9 cprs pinsjustaret-vilatte 04:02:57 34,08 106
108 531 FLORENTIN FRANCOIS MC 40 bmc beziers 04:02:58 34,08 107
109 836 RIEM DAMIEN MB 16 team saint chamas passion 04:02:58 34,08 108
110 108 CHAPAL VINCENT MD 25 club cycliste solidarité 34 04:02:59 34,08 109
111 467 IBANEZ JEAN MARC MC 41 vitrolles bmx 04:02:59 34,08 110
112 853 HANNOYE JÉRÔME MB 17 svc nimois 04:02:59 34,07 111
113 146 CASALIS JOEL MD 26 avignon le pontet triathlon 04:03:00 34,07 112
114 819 RONAN FORDE FORDE MA 17 galway bay cc 04:03:00 34,07 113
115 115 BLANCHARD PATRICK MD 27 randonneurs lézignanais 04:03:00 34,07 114
116 828 GUYARD MIKAEL MB 18   04:03:00 34,07 115
117 118 MORIERES JOSE MD 28 cyclo club aussonnais 04:03:01 34,07 116
118 43 LARROQUE PASCAL MD 29 cprs pins justaret villate 04:03:01 34,07 117
119 465 DOVERGNE PHILIPPE MC 42 tbc34 04:03:02 34,07 118
120 90 BOT RAYMOND MD 30 cyclo club rivesaltes 04:03:03 34,07 119
121 843 FOSSE MATTHIEU MB 19 les angles triathlon 04:03:04 34,06 120
122 478 MASSART NICOLAS MC 43 team baudille cycliste 34 04:03:05 34,06 121
123 515 YOLANDE SEBASTIEN MC 44 velo club de salon de provence 04:03:10 34,05 122
124 820 BONNEROT-AGNIEL FLORIAN MA 18 bézier méditerranée cyclisme 04:03:12 34,04 123
125 163 BOUNIOL ERIC MD 31   04:03:22 34,02 124
126 199 MOREL FRANCK MD 32   04:03:23 34,02 125
127 435 FAVIER ERIC MC 45 team cvc carcassonne 04:04:01 33,93 126
128 56 RUIZ RENE MF 4 team montagnac ac 04:05:26 33,74 127
129 412 CRESPY BRUNO MC 46 club neutre lr 04:05:26 33,73 128
130 61 BANON JEAN-LOUIS MD 33 team montagnac avenir cycliste 04:05:27 33,73 129
131 535 MAS FABRICE MC 47 team baudille cyclisme 34 04:05:30 33,73 130
132 475 BIZIEN PHILIPPE MC 48 cyclo club rivesaltes 04:05:43 33,70 131
133 812 COURVOISIER RENALD MB 20 team montagnac a-c 04:06:10 33,64 132
134 452 BAILLY JEAN MC 49 velo club randonneurs lezignanais 04:07:16 33,48 133
135 151 BOUDES FREDERIC MD 34 ac clapiers 04:07:26 33,46 134
136 145 PINA JEAN CLAUDE MD 35 cprs pins-justaret-villate 04:07:26 33,46 135
137 855 POULEUR PATRICK MB 21 canohes avenir cycliste 04:07:26 33,46 136
138 445 COURNET HERVE MC 50 crocos d'airain nimes tri 04:07:32 33,45 137
139 148 BROTHIER MARCEL MD 36 elan cyclite balarucois 04:07:34 33,44 138
140 500 BOUQUIN MICHAEL MC 51 svcn 04:08:12 33,36 139
141 55 ROCH BRUNO MD 37 ac clapiers 04:08:29 33,32 140
142 111 MILHAU PHILIPPE MD 38 vc laissac 04:08:31 33,32 141
143 428 BENOIT PHILIPPE MC 52 vc salaindres 04:08:31 33,32 142
144 524 CRESPO DENIS MC 53 velo club les angles 04:08:34 33,31 143
145 175 LAURENT GABRIEL MD 39 cprs pins justaret 04:09:49 33,14 144
146 835 CHAW-KUI EDDY MB 22   04:10:01 33,12 145
147 16 ROBERTS SIMON MD 40 vcll pezenas 04:10:48 33,01 146
148 464 MICHAUD PATRICK MC 54 croco d'airain 04:11:09 32,97 147
149 825 CHAPUZET GUILLAUME MB 23 croco d`airain nimes triathlon 04:11:19 32,95 148
150 198 XENOPHANE GUY ME 10 cprs pins justaret vilatte 04:11:22 32,94 149
151 104 GRENSON LEON MF 5 team mailleux 04:11:22 32,94 150
152 461 GUIBERT NOEL MC 55 csad 2reg 04:11:22 32,94 151
153 11 STANESCO JOEL ME 11 dynamic club de quedillac 04:11:23 32,94 152
154 439 CLEMENTE JEAN MARC MC 56 cprs 04:11:24 32,94 153
155 190 VARIN WILFRID MD 41   04:11:24 32,93 154
156 209 PUECH ALAIN MC 57 ucd requista 04:11:24 32,93 155
157 157 VERGER THIERRY MD 42 a.s. l'union 04:11:24 32,93 156
158 416 CALLET JEAN PHILIPPE MC 58 uzes vélo club 04:11:30 32,92 157
159 161 LAFFONT ERIC MD 43 cso millau 04:11:30 32,92 158
160 147 LAVIELLE DENIS MD 44 balma velo sprint 04:11:35 32,91 159
161 432 HELMKAMPF JOHN MC 59   04:12:14 32,83 160
162 438 LE BOUCHER XAVIER MC 60 toulon triathlon mutuelle verte 04:12:52 32,74 161
163 31 MENDONCA CHRISTIAN ME 12 pc pedal 04:12:53 32,74 162
164 60 PUECH GILLES MD 45 as carcassonne 04:12:54 32,74 163
165 462 CHETCUTI PATRICK MC 61 avenir cycliste rognonais 04:12:54 32,74 164
166 469 MARQUES FERNANDO MC 62   04:12:54 32,74 165
167 419 PATTERSON GERALD MC 63   04:12:54 32,74 166
168 425 ROUAUD DAVID MC 64 uzes velo club 04:12:54 32,74 167
169 487 CABEL CHRISTOPHE MC 65 elan cycliste balarucois 04:12:55 32,74 168
170 852 TREADWELL PHILIP MB 24 cvc carcassonne 04:12:55 32,74 169
171 28 CORNETTE ALAIN ME 13 cyclo club de cannes 04:12:55 32,74 170
172 129 BRESSON JEAN-PIERRE MD 46 vtt club caveirac 04:12:55 32,74 171
173 854 THORE JEAN PHILIPPE MD 47   04:12:55 32,74 172
174 51 BOISSET THIERRY MD 48 cprs pins justaret vilatte 04:12:56 32,73 173
175 70 MONTET ERIC MD 49 caveirac vtt 04:12:57 32,73 174
176 807 GARCIA LAURENT MB 25 team montagnac ac 04:12:57 32,73 175
177 406 DECAUX SEBASTIEN MC 66 uc fumel monsepron-libos 04:12:58 32,73 176
178 490 AT FRÉDÉRIC MC 67 flèche du midi 04:13:00 32,73 177
179 67 ORTS WILLIAM MD 50 csomillau 04:13:03 32,72 178
180 98 LESAGE PHILIPPE MD 51 team scott vélo 101 04:13:50 32,62 179
181 10 LACRAMPE CHRISTIAN MD 52 avenir bizanos 04:14:06 32,58 180
182 422 MATHIEU HUBERT MC 68 mousquetaires cyclistes pradéens 04:15:22 32,42 181
183 536 ROBBIANI LOIC MC 69 tac cyclo 04:15:58 32,35 182
184 539 CAUSSE BENOIT MC 70 team baudille cyclisme 34 04:16:13 32,32 183
185 479 PIBAROT DIDIER MC 71 cprs pins justaret 04:16:14 32,31 184
186 24 BASSERY ANDRÉ MF 6 cabe 47 04:17:10 32,20 185
187 131 MABILEAU JEAN-MARC MD 53 velo club vailhauquois 2000 04:17:11 32,19 186
188 537 ADROVER GUILHEM MC 72 tbc 34 04:17:11 32,19 187
189 160 BOISSIER LUDOVIC MC 73 velo club tcn/tango 04:17:11 32,19 188
190 52 DROUET GERARD MF 7 cyclo club suzerain 04:17:12 32,19 189
191 5 NICOLAS JOSÉ MD 54   04:17:12 32,19 190
192 150 AZÉMAR CLAUDE MD 55 union cycliste réquista 04:17:12 32,19 191
193 39 NAVARRO SERGE MD 56 velo club de port de bouc 04:17:13 32,19 192
194 120 BOUISSOU PATRICK MD 57 ecdv marcillac 04:17:13 32,19 193
195 450 SLUSARCZYK PIERRE MC 74 rodez triathlon 12 04:17:13 32,19 194
196 522 LE CAM SYLVAIN MC 75 sudvélo/ne jetez plus 04:17:39 32,14 195
197 838 PLANCQUE JÉRÉMY MB 26 aquasports saint cyprien 04:18:10 32,07 196
198 107 LAVIGNE CLAUDE MF 8   04:18:10 32,07 197
199 156 TAJAN ALAIN ME 14 fjep varilhes 04:18:10 32,07 198
200 132 PORTAL JACQUES MD 58 cyclo sport villefranchois 04:18:12 32,07 199
201 476 DROUET YANNICK MC 76 team 12 04:18:12 32,07 200
202 84 BROS THIERRY MD 59 velo club mauguio 04:19:36 31,89 201
203 822 JANNY CEDRIC MB 27 cso millau 04:19:48 31,87 202
204 87 LORMIER PASCAL MD 60 individuel 04:20:05 31,84 203
205 184 LOPEZ ROGER MD 61 vcll pezenas 04:20:05 31,83 204
206 183 DEBAR GUY MD 62 le cyclosport villefranchois 04:20:06 31,83 205
207 26 ARRAGON DANIEL ME 15 ec nimois 04:20:09 31,83 206
208 480 LAURENS FRANCK MC 77 ec poussan 04:20:22 31,80 207
209 512 IMMERS FREDERIC MC 78 sud vélo ne jetez plus 04:21:22 31,68 208
210 851 TURC BAISE MA 19 sud velo ne jetez plus 04:21:23 31,68 209
211 142 CASTAREDE DENIS ME 16 cyclo club marvejolais 04:21:24 31,68 210
212 41 LACHENY PASCAL MD 63 as legrand 04:21:33 31,66 211
213 59 WODEY ARNAUD MD 64 svc nimes 04:22:56 31,49 212
214 126 FLANDIN HUGUES MD 65 triathlete club narbonnais 04:22:58 31,49 213
215 486 TOUBAS SEBASTIEN MC 79 cc rivesaltes 04:23:27 31,43 214
216 106 GLANDER JEAN-MARC MD 66 ar 04:23:34 31,41 215
217 125 WHITE ROBERT MD 67 cprs pins justaret villate 04:23:45 31,39 216
218 158 BADOSA SYLVAIN ME 17 canohes avenir cycliste 04:23:46 31,39 217
219 29 HERCOT MICHEL MD 68 fleche du midi 04:24:00 31,36 218
220 810 HUSSON YOHANN MB 28 croco d'airin 04:24:01 31,36 219
221 527 FROMENT FRANÇOIS MC 80   04:24:01 31,36 220
222 829 ROCHE FRANCK MA 20 sprinter velo club nimois 04:24:02 31,36 221
223 846 DENIER KÉVIN MA 21   04:24:02 31,36 222
224 493 BOUVET PIERRE MC 81 sud velo ne jetez plus 04:24:03 31,36 223
225 159 BLAYAC CLAUDE MD 69 velo sport saint affricain 04:24:07 31,35 224
226 204 CRESPIN FRANCK MD 70 sud vélo/ne jetez plus 04:24:08 31,35 225
227 473 GUIGOU FABRICE MC 82 velo-club vailhauquoise 2000 04:24:56 31,25 226
228 207 MOHNEN LAURE FW2 2 uc monaco 04:24:57 31,25 2
229 483 FISTON PHILIBERT MC 83 ac clapiers 04:25:11 31,22 227
230 499 MOLINE BENOIT MC 84 canohes avenir cycliste 04:25:15 31,21 228
231 468 IBANEZ PATRICK MC 85 vitrolles bmx 04:26:00 31,13 229
232 95 LAURES BRUNO MD 71 cocgp 30 04:27:08 31,00 230
233 81 HOLLARD PHILIPPE MD 72 clapiers 04:27:57 30,90 231
234 534 BOURDEL PIERRE MC 86 vcll pezenas 04:27:58 30,90 232
235 133 ALLEGRE MICHEL MD 73 cyclo club de castries 04:28:00 30,89 233
236 127 DELORME YVES-MARIE MD 74 vc védasien 04:28:10 30,88 234
237 802 RUZAFA CHRISTOPHE MB 29 vélo sprint narbonnais 04:28:19 30,86 235
238 402 ROQUES YVES MC 87 team montagnac ac 04:28:19 30,86 236
239 458 FREDON SYLVAIN MC 88 vc cosnac 04:28:26 30,85 237
240 48 KEETMAN MARGREET FW2 3 cracs les renaudie 04:30:19 30,63 3
241 34 DERAIN DOMINIQUE ME 18 ags cyclosport 04:30:19 30,63 238
242 116 DERUSCHI FRÉDÉRIC MD 75 club cycliste solidarité 34 04:30:39 30,59 239
243 540 VARON DIDIER MC 89 coc carnon cyclo 04:31:36 30,49 240
244 74 JEAN DOMINIQUE MD 76 cyclo fonsorbais 04:31:42 30,47 241
245 73 BROUSSE HERVÉ MD 77 cyclo fonsorbais 04:31:45 30,47 242
246 811 BLAYA PIERRE MB 30 velo sprint narbonnais 04:31:50 30,46 243
247 122 DUHAMEL FRANTZ MC 90 les copains d'abord 04:31:52 30,46 244
248 135 VIGUIER MICHEL ME 19 a.s. l'union 04:32:36 30,37 245
249 66 DUFAU ALAIN MD 78 a.s l'union 04:32:36 30,37 246
250 113 SOLDEVILA JOSE MD 79 les randonneurs narbonnais 04:32:52 30,34 247
251 466 LACOUR LAURENT MC 91 flèche du midi 04:33:15 30,30 248
252 430 LAURENT RÉGIS MC 92 vintage 04:33:49 30,24 249
253 805 HOURUGOU THIERRY MB 31 trelissac couloumieix chamiers 04:34:33 30,16 250
254 808 MANUS JEAN-MICHEL MB 32   04:35:02 30,10 251
255 434 CASTELLANO DAVID MC 93 team saint chamas passion 04:35:03 30,10 252
256 62 REQUENA DANIEL ME 20 team montagnac avenir cycliste 04:35:04 30,10 253
257 194 ANSTATT JEAN-CLAUDE MD 80   04:35:25 30,06 254
258 164 MAJOULET HUGUES MD 81 la fleche du midi 04:35:29 30,05 255
259 63 ROUSSILLE DOMINIQUE MD 82 monsempron libos fumel 04:35:31 30,05 256
260 65 BIANCO GEORGES ME 21 uc fumel-monsempron libos 04:35:32 30,05 257
261 79 COUDERC JEAN MARIE MF 9 uc fumel monsempron libos 04:35:32 30,05 258
262 71 ALBINET ANDRÉ MD 83 union cycliste fumel monsempron-libos 04:35:33 30,05 259
263 427 YAGER JÉRÔME MC 94 atac aragon 04:35:39 30,04 260
264 21 LACOSTE JEAN LUC MD 84 al sarras 04:36:22 29,96 261
265 83 LIMOUZY DANIEL MD 85 vcll pézenas 04:36:41 29,93 262
266 519 FERMIN HERVE MC 95 team montagnac avenir cyclisme 04:36:41 29,92 263
267 114 BIZARD MAX MF 10 vc miramas 04:36:44 29,92 264
268 200 CHABERT MICHEL ME 22 bike aventure 04:36:47 29,91 265
269 124 SEGOND FRANCIS MD 86 ucd requista 04:36:51 29,91 266
270 471 TREMOLIERES MARC MC 96 union cycliste requista 04:36:51 29,91 267
271 408 PROKOP STEVE MC 97 balmoral cycling club / vcll pezanas 04:37:00 29,89 268
272 88 GARDES JEAN-PAUL MD 87 caveirac vtt club 04:39:16 29,65 269
273 814 BARENNE CEDRIC MA 22 asph triathlon 04:39:36 29,61 270
274 42 NOUVEL-OWENS ANNE FW1 1   04:41:20 29,43 4
275 477 HUSSON BERNARD MC 98 girondins de bordeaux 04:41:22 29,43 271
276 109 BONNEFOY ALAIN MF 11 velo club melgorien 04:42:01 29,36 272
277 1 VAZQUEZ THIERRY MD 88 tri run frontignan 04:42:10 29,34 273
278 38 GOUESBIER HENRI MF 12 ac chapelain 04:42:11 29,34 274
279 195 VITOU ALAIN MD 89 fleche du midi 04:42:11 29,34 275
280 193 GOUDENT PASCAL MD 90 fleche du midi 04:42:44 29,29 276
281 102 BIGARE GERARD MD 91 cprs pins justaret villate 04:42:44 29,28 277
282 35 ESCAICH GENEVIÈVE FW3 1 guidon fuxuéen 04:42:59 29,26 5
283 504 GREGOIRE PHILIPPE MC 99 guidon fuxéen 04:43:39 29,19 278
284 188 COURTOIS HERVE MD 92 triathlète club narbonnais 04:44:18 29,12 279
285 143 CAMIER ALAIN MF 13 uc d'affinois/pelussin 04:44:18 29,12 280
286 144 FABRY ALAIN ME 23 ac montseveroux 04:44:19 29,12 281
287 3 THUREAU GISÈLE FW3 2 team cycliste choletais 04:45:59 28,95 6
288 57 PASTEUR KARL MD 93   04:46:17 28,92 282
289 58 ROUSSY BERNARD MD 94   04:46:17 28,92 283
290 78 LAQUERBE JEAN PAUL ME 24 requista 04:46:53 28,86 284
291 13 PIROLA HERVÉ MD 95   04:48:19 28,72 285
292 424 VINSON PHILIPPE MC 100   04:48:33 28,69 286
293 15 BEVAN STEPHEN MD 96 as monaco triathlon 04:48:39 28,68 287
294 192 DUCROS ISABELLE FW2 4 fleche du midi 04:48:58 28,65 7
295 191 DUCROS PIERRE ME 25 fleche du midi 04:48:58 28,65 288
296 525 CHALLOT ERIC MC 101 montpellier triathlon 04:48:58 28,65 289
297 523 ARTIERES EMMANUEL MC 102 pas ce club 04:48:58 28,65 290
298 470 ENJOLRAS FRANCK MC 103 vétérans poulxois 04:49:02 28,65 291
299 858 DEDIEU DAVID MB 33 free iron team 04:50:43 28,48 292
300 431 CROSNIER DE BELLAISTRE GILLES MC 104 velo sport castelnaudary 04:51:25 28,41 293
301 178 GRIMAL CLAUDE ME 26 neutre 04:51:55 28,36 294
302 75 BEDRINES MAX MF 14 cyclo fonsorbais 04:52:02 28,35 295
303 89 SCHNEIDER DIDIER MD 97 velo club des alpilles 04:52:15 28,33 296
304 100 ROCHE CATHERINE FW3 3 chamrousse team cyclosport 04:53:34 28,20 8
305 484 SANCHEZ DAVID MC 105   04:55:21 28,03 297
306 804 DENEVE ERIC MB 34 non 04:56:39 27,91 298
307 421 ASSENAT SERGE MC 106 crocos d'airain nimes 04:57:31 27,83 299
308 813 MARTINEZ OLIVIER MB 35 crocos d'airain nimes 04:57:32 27,83 300
309 441 CHIAPELLO PHILIPPE MC 107 team saint-chamas passion 04:58:58 27,69 301
310 45 MONGIOLS JEAN-CLAUDE ME 27 cc les copains ambert 05:00:53 27,52 302
311 40 LASSENNE PIERRE MD 98 as legrand 05:01:40 27,45 303
312 533 CARRION CLAUDE MC 108   05:02:52 27,34 304
313 205 LAURENT HELENE FW3 4 sud vélo/ne jetez plus 05:03:09 27,31 9
314 541 STARLING SHANE MC 109 sud vélo/ne jetez plus 05:03:09 27,31 305
315 818 GUILLAMET CHRISTOPHE MB 36 girou triathlon 05:03:09 27,31 306
316 871 XENOPHANE GUILLAUME MB 37 cprs pins justaret vilatte 05:04:05 27,23 307
317 22 BARTHOLOME BERNARD MF 15 vc brignais 05:04:44 27,17 308
318 482 VIALA JEAN LUC MC 110 vc uzes 05:04:52 27,16 309
319 803 NAU PIERRE MA 23 uzes velo club 05:04:52 27,16 310
320 197 FERNANDEZ JEAN-YVES ME 28 cprs pins justaret vilatte 05:04:53 27,16 311
321 36 SERREAU ROGER MF 16 evbb 05:04:53 27,16 312
322 6 CAMPBELL JOHN MF 17 "cigognes, tarbes" 05:09:09 26,78 313
323 80 RABOT PATRICK MD 99 union cycliste fumel monsempron-libos 05:09:12 26,78 314
324 105 CAMPOY JOSE MF 18 uc fumel-monsempron libos 05:09:14 26,78 315
325 823 FILHOL BENOIT MB 38   05:09:14 26,78 316
326 72 BASCOLE JEAN MARC MD 100 union cycliste fumel mosenpron libos 05:09:16 26,77 317
327 77 DELCAILLOU JACQUES ME 29 uc fumel monsempron libos 05:09:26 26,76 318
328 196 MARTIN DIDIER ME 30 fleche du midi 05:09:27 26,76 319
329 141 MURET JEAN ME 31   05:15:49 26,22 320
330 68 FOUIX PASCAL MD 101   05:15:57 26,21 321
331 863 ROBICHON JULIEN MB 39 triathlete club narbonnais 05:21:03 25,79 322
332 841 SEGOND BASTIEN MA 24 ucd requista 05:22:45 25,65 323
333 426 OWENS KEVIN MC 111 galway bay cycling club 05:24:20 25,53 324
334 460 TRUJILLO PATRICK MC 112 requista 05:26:20 25,37 325
335 27 MARCO CHRISTINE FW3 5 gnt 05:26:41 25,35 10
336 46 QUINTON PAUL ME 32 cyclo club bédarieux 05:27:10 25,31 326
337 69 DAUMAS JEAN PIERRE ME 33   05:27:15 25,30 327
338 153 GUY PIERRE MF 19   05:27:15 25,30 328
339 30 MARCUELLO ANNICK FW2 5 grand narbonne triathlon 05:27:43 25,27 11
340 103 RIOL PATRICK MD 102 aucun 05:29:18 25,14 329
341 451 CONSTENTIN JEAN LUC MC 113 cyclo fonsorbais 05:36:56 24,57 330
342 463 MONGAN JOHN MC 114 tri lakes triathlon club 05:53:55 23,39 331
343 489 COTELLE DOMINIQUE MC 115   05:57:07 23,19 332
344 86 BERTEZENE GEORGES MF 20 vcll pezenas 05:57:55 23,13 333
345 407 VAN BOGERIJEN MARK MC 116 vcll pezenas 05:57:55 23,13 334
346 447 SERRA THIERRY MC 117   05:59:35 23,03 335
347 47 VERNIÈRE JEAN-PIERRE ME 34   06:00:29 22,97 336
348 17 CORREAS LIBERTO ME 35 team montagnac ac 00:00:00 5,75 337
349 37 JOFRE FERNAND MF 21 cc pyreneen 00:00:00 5,75 338
350 93 CLEMENTE GREGOIRE MD 104 cyclo fonsorbais 00:00:00 5,75 339
351 99 DEMOL JEAN-PIERRE MD 105 velo club des alpilles 00:00:00 5,75 340
352 137 VIERNE NICOLAS MD 103   00:00:00 5,75 341
353 455 GODELLE FRANCK MC 118 team montagnac ac 00:00:00 5,75 342
354 53 BARRERE JEAN -PIERRE MD 106 uc fumel monsempron -libos 04:22:04 4,86 343